K4TH Weather Reports


time (UTC)temp
C
wind
direction
speed
KPH
gust
KPH
rain 1hr
cm
rain 24hr
cm
rain mn
cm
humidity
%
barometer
mb
20260906132210 28 325 0.0 0.0 0.00 0.00 0.00 89 1012.3
20260906131706 27 327 0.0 1.6 0.00 0.00 0.00 88 1012.0
20260906131201 27 313 0.0 3.2 0.00 0.00 0.00 88 1012.3
20260906130656 27 175 1.6 1.6 0.00 0.00 0.00 89 1012.1
20260906130151 27 165 1.6 3.2 0.00 0.00 0.00 88 1012.1
20260906125649 27 175 3.2 4.8 0.00 0.00 0.00 90 1011.8
20260906125148 27 311 0.0 0.0 0.00 0.00 0.00 88 1012.2
20260906124643 27 310 0.0 0.0 0.00 0.00 0.00 88 1012.2
20260906124139 27 159 1.6 3.2 0.00 0.00 0.00 89 1012.1
20260906123637 27 181 0.0 1.6 0.00 0.00 0.00 89 1012.1
20260906123133 27 165 1.6 3.2 0.00 0.00 0.00 89 1012.0
20260906122632 27 172 1.6 4.8 0.00 0.00 0.00 90 1011.9
20260906122128 27 335 1.6 3.2 0.00 0.00 0.00 91 1012.2
20260906121623 27 179 1.6 3.2 0.00 0.00 0.00 90 1011.8
20260906121120 27 148 1.6 3.2 0.00 0.00 0.00 91 1011.7
20260906120616 27 164 1.6 3.2 0.00 0.00 0.00 91 1011.8
20260906120113 27 153 3.2 3.2 0.00 0.00 0.00 92 1011.8
20260906115612 26 356 0.0 0.0 0.00 0.00 0.00 93 1011.8
20260906115108 26 355 1.6 1.6 0.00 0.00 0.00 93 1011.9
20260906114608 26 355 0.0 0.0 0.00 0.00 0.00 94 1011.6
20260906114103 26 354 0.0 0.0 0.00 0.00 0.00 94 1011.9
20260906113602 26 354 0.0 1.6 0.00 0.00 0.00 94 1011.8
20260906113058 26 354 0.0 0.0 0.00 0.00 0.00 92 1012.0
20260906112557 26 354 0.0 0.0 0.00 0.00 0.00 93 1011.9
20260906112054 26 354 0.0 0.0 0.00 0.00 0.00 93 1011.7
20260906111553 26 354 0.0 0.0 0.00 0.00 0.00 93 1011.8
20260906111049 26 354 0.0 0.0 0.00 0.00 0.00 93 1011.8
20260906110548 26 354 0.0 0.0 0.00 0.00 0.00 93 1012.1
20260906110048 26 354 0.0 0.0 0.00 0.00 0.00 93 1012.0
20260906105543 26 354 0.0 0.0 0.00 0.00 0.00 93 1011.7
20260906105039 26 354 0.0 0.0 0.00 0.00 0.00 93 1011.8
20260906104538 26 354 0.0 0.0 0.00 0.00 0.00 93 1012.0
20260906104038 26 354 0.0 0.0 0.00 0.00 0.00 93 1011.7
20260906103536 26 354 0.0 0.0 0.00 0.00 0.00 93 1011.7
20260906103032 26 354 0.0 0.0 0.00 0.00 0.00 93 1011.8
20260906102532 26 354 0.0 0.0 0.00 0.00 0.00 94 1012.1
20260906102027 26 354 0.0 0.0 0.00 0.00 0.00 93 1012.1
20260906101527 26 354 0.0 0.0 0.00 0.00 0.00 93 1012.1
20260906101022 26 354 0.0 0.0 0.00 0.00 0.00 94 1012.2
20260906100517 26 354 0.0 0.0 0.00 0.00 0.00 94 1012.1
20260906100012 26 354 0.0 1.6 0.00 0.00 0.00 94 1012.3
20260906095507 27 354 0.0 0.0 0.00 0.00 0.00 94 1012.4
20260906095003 27 354 0.0 0.0 0.00 0.00 0.00 95 1012.0
20260906094501 26 354 0.0 0.0 0.00 0.00 0.00 95 1012.0
20260906093957 26 354 0.0 0.0 0.00 0.00 0.00 96 1011.9
20260906093454 26 354 0.0 0.0 0.00 0.00 0.00 97 1011.8
20260906092954 26 354 0.0 0.0 0.00 0.00 0.00 97 1011.7
20260906092453 26 354 0.0 0.0 0.00 0.00 0.00 97 1011.7
20260906091949 27 354 0.0 1.6 0.00 0.00 0.00 96 1011.6
20260906091444 27 354 0.0 0.0 0.00 0.00 0.00 96 1011.3
20260906090941 27 354 0.0 0.0 0.00 0.00 0.00 96 1011.3
20260906090436 27 354 0.0 0.0 0.00 0.00 0.00 95 1011.3
20260906085930 27 354 0.0 0.0 0.00 0.00 0.00 95 1011.1
20260906085429 27 354 0.0 0.0 0.00 0.00 0.00 95 1011.3
20260906084928 27 354 0.0 0.0 0.00 0.00 0.00 95 1011.2
20260906084424 27 354 0.0 0.0 0.00 0.00 0.00 96 1011.1
20260906083923 27 354 0.0 3.2 0.00 0.00 0.00 95 1011.0
20260906083418 27 354 0.0 0.0 0.00 0.00 0.00 95 1010.9
20260906082917 27 354 0.0 0.0 0.00 0.00 0.00 95 1011.1
20260906082413 27 354 0.0 1.6 0.00 0.00 0.00 94 1011.0
20260906081909 27 354 0.0 0.0 0.00 0.00 0.00 94 1011.1
20260906081404 27 354 0.0 0.0 0.00 0.00 0.00 94 1011.2
20260906080900 27 354 0.0 0.0 0.00 0.00 0.00 94 1011.1
20260906080357 27 354 0.0 0.0 0.00 0.00 0.00 94 1011.1
20260906075855 27 354 0.0 0.0 0.00 0.00 0.00 95 1011.0
20260906075350 27 354 0.0 0.0 0.00 0.00 0.00 95 1011.1
20260906074846 27 354 0.0 0.0 0.00 0.00 0.00 95 1011.0
20260906074346 27 354 0.0 0.0 0.00 0.00 0.00 95 1011.0
20260906073844 27 354 1.6 1.6 0.00 0.00 0.00 95 1010.9
20260906073339 27 354 0.0 0.0 0.00 0.00 0.00 96 1010.9
20260906072836 27 354 0.0 1.6 0.00 0.00 0.00 96 1011.0
20260906072332 27 354 0.0 0.0 0.00 0.00 0.00 96 1011.2
20260906071827 27 354 0.0 0.0 0.00 0.00 0.00 96 1010.8
20260906071328 27 354 0.0 0.0 0.00 0.00 0.00 96 1011.2
20260906070824 27 354 0.0 1.6 0.00 0.00 0.00 96 1011.0
20260906070320 27 355 1.6 1.6 0.00 0.00 0.00 95 1011.2
20260906065820 27 355 0.0 0.0 0.00 0.00 0.00 95 1011.1
20260906065315 27 355 0.0 0.0 0.00 0.00 0.00 95 1011.1
20260906064810 27 355 0.0 0.0 0.00 0.00 0.00 94 1011.1
20260906064307 27 355 0.0 0.0 0.00 0.00 0.00 94 1011.5
20260906063801 27 355 0.0 0.0 0.00 0.00 0.00 94 1011.2
20260906063256 27 355 0.0 0.0 0.00 0.00 0.00 94 1011.5
20260906062751 27 355 0.0 1.6 0.00 0.00 0.00 94 1011.2
20260906062251 27 163 0.0 0.0 0.00 0.00 0.00 94 1011.3
20260906061746 27 163 0.0 0.0 0.00 0.00 0.00 93 1011.2
20260906061243 27 163 0.0 0.0 0.00 0.00 0.00 94 1011.5
20260906060737 27 163 0.0 0.0 0.00 0.00 0.00 93 1011.4
20260906060235 27 163 0.0 1.6 0.00 0.00 0.00 93 1011.6
20260906055731 28 163 0.0 0.0 0.00 0.00 0.00 92 1011.7
20260906055226 28 165 0.0 0.0 0.00 0.00 0.00 91 1011.6
20260906054721 28 165 0.0 1.6 0.00 0.00 0.00 91 1011.6
20260906054216 28 164 0.0 3.2 0.00 0.00 0.00 91 1011.6
20260906053713 28 187 0.0 0.0 0.00 0.00 0.00 91 1011.3
20260906053208 28 187 0.0 0.0 0.00 0.00 0.00 92 1011.6
20260906052703 28 187 0.0 0.0 0.00 0.00 0.00 92 1011.5
20260906052159 28 187 0.0 0.0 0.00 0.00 0.00 91 1011.9
20260906051656 28 187 0.0 0.0 0.00 0.00 0.00 91 1011.7
20260906051155 28 187 0.0 0.0 0.00 0.00 0.00 91 1012.1
20260906050651 28 187 0.0 1.6 0.00 0.00 0.00 92 1012.0
20260906050146 28 191 0.0 0.0 0.00 0.00 0.00 91 1012.2
20260906045644 28 191 0.0 0.0 0.00 0.00 0.00 92 1011.8
20260906045139 28 191 0.0 0.0 0.00 0.00 0.00 91 1012.1
20260906044636 28 191 0.0 0.0 0.00 0.00 0.00 90 1012.0
20260906044131 28 190 0.0 0.0 0.00 0.00 0.00 90 1011.7
20260906043627 28 191 0.0 0.0 0.00 0.00 0.00 90 1011.8
20260906043122 28 190 0.0 0.0 0.00 0.00 0.00 90 1011.7
20260906042621 28 190 0.0 0.0 0.00 0.00 0.00 89 1011.7
20260906042116 28 190 0.0 0.0 0.00 0.00 0.00 90 1012.1
20260906041612 28 190 0.0 0.0 0.00 0.00 0.00 90 1012.0
20260906041112 28 190 0.0 0.0 0.00 0.00 0.00 90 1012.1
20260906040607 28 190 0.0 0.0 0.00 0.00 0.00 89 1011.9
20260906035558 28 190 0.0 0.0 0.00 0.00 0.00 89 1012.0
20260906035054 28 190 0.0 0.0 0.00 0.00 0.00 89 1012.1
20260906034554 28 190 0.0 0.0 0.00 0.00 0.00 89 1012.1
20260906034049 28 190 0.0 0.0 0.00 0.00 0.00 89 1011.6
20260906033544 28 190 0.0 0.0 0.00 0.00 0.00 89 1011.8
20260906033039 28 190 0.0 0.0 0.00 0.00 0.00 88 1012.0
20260906032536 28 190 0.0 0.0 0.00 0.00 0.00 88 1012.2
20260906032030 29 190 0.0 1.6 0.00 0.00 0.00 88 1012.1
20260906031526 29 190 0.0 0.0 0.00 0.00 0.00 87 1011.9
20260906031021 30 190 0.0 0.0 0.00 0.00 0.00 86 1012.1
20260906030521 30 190 0.0 0.0 0.00 0.00 0.00 85 1011.9
20260906030020 30 190 0.0 0.0 0.00 0.00 0.00 85 1011.6
20260906025520 30 190 0.0 1.6 0.00 0.00 0.00 85 1012.0
20260906025018 30 190 0.0 0.0 0.00 0.00 0.00 84 1011.9
20260906024514 30 190 0.0 1.6 0.00 0.00 0.00 85 1012.0
20260906024014 30 190 0.0 1.6 0.00 0.00 0.00 84 1011.9
20260906023510 30 174 1.6 4.8 0.00 0.00 0.00 85 1012.0
20260906023004 30 190 1.6 4.8 0.00 0.00 0.00 85 1011.9
20260906022500 30 194 1.6 3.2 0.00 0.00 0.00 83 1011.9
20260906021955 30 223 0.0 0.0 0.00 0.00 0.00 83 1011.5
20260906021450 30 247 1.6 3.2 0.00 0.00 0.00 84 1011.6
20260906020944 30 254 0.0 0.0 0.00 0.00 0.00 84 1011.6
20260906020439 30 254 0.0 0.0 0.00 0.00 0.00 82 1011.4
20260906015933 30 259 0.0 0.0 0.00 0.00 0.00 85 1011.4
20260906015432 30 259 0.0 0.0 0.00 0.00 0.00 83 1011.3
20260906014932 30 260 0.0 0.0 0.00 0.00 0.00 82 1011.3
20260906014432 31 259 0.0 0.0 0.00 0.00 0.00 82 1011.0
20260906013928 31 259 0.0 0.0 0.00 0.00 0.00 81 1010.9
20260906013424 31 259 0.0 1.6 0.00 0.00 0.00 81 1010.6
20260906012919 31 260 0.0 0.0 0.00 0.00 0.00 80 1010.6
20260906012419 31 259 0.0 0.0 0.00 0.00 0.00 79 1010.7
20260906011918 31 260 0.0 1.6 0.00 0.00 0.00 79 1010.8
20260906011414 31 260 0.0 1.6 0.00 0.00 0.00 78 1010.6
20260906010909 31 253 0.0 0.0 0.00 0.00 0.00 79 1010.7
20260906010405 31 254 0.0 1.6 0.00 0.00 0.00 77 1010.3
20260906005901 31 250 0.0 1.6 0.00 0.00 0.00 77 1010.2
20260906005400 31 208 1.6 1.6 0.00 0.00 0.00 78 1009.8
20260906004858 31 268 0.0 3.2 0.00 0.00 0.00 76 1009.8
20260906004353 31 212 0.0 3.2 0.00 0.00 0.00 78 1009.5
20260906003848 31 154 0.0 1.6 0.00 0.00 0.00 76 1009.6
20260906003344 31 209 0.0 1.6 0.00 0.00 0.00 77 1009.5
20260906002839 31 209 0.0 0.0 0.00 0.00 0.00 75 1009.8
20260906002338 31 209 0.0 0.0 0.00 0.00 0.00 75 1009.7
20260906001834 32 209 0.0 0.0 0.00 0.00 0.00 74 1010.1
20260906001329 31 209 0.0 0.0 0.00 0.00 0.00 73 1009.9
20260906000825 32 209 0.0 0.0 0.00 0.00 0.00 73 1009.8
20260906000319 32 209 1.6 1.6 0.00 0.00 0.00 72 1010.1
20260905235819 32 219 0.0 1.6 0.00 0.00 0.00 72 1010.1
20260905235314 32 192 1.6 3.2 0.00 0.00 0.00 73 1010.0
20260905234809 32 162 3.2 4.8 0.00 0.00 0.00 72 1010.1
20260905234304 33 156 3.2 3.2 0.00 0.00 0.00 73 1010.1
20260905233800 33 196 0.0 1.6 0.00 0.00 0.00 70 1009.8
20260905233300 33 181 1.6 4.8 0.00 0.00 0.00 68 1010.0
20260905232759 33 201 1.6 4.8 0.00 0.00 0.00 69 1009.8
20260905232255 33 196 1.6 6.4 0.00 0.00 0.00 68 1010.1
20260905231751 33 187 3.2 6.4 0.00 0.00 0.00 69 1010.0
20260905231246 33 154 8.0 9.7 0.00 0.00 0.00 70 1010.0
20260905230742 35 168 6.4 11.3 0.00 0.00 0.00 73 1010.2
20260905230240 35 284 0.0 3.2 0.00 0.00 0.00 67 1009.9
20260905225739 35 73 0.0 1.6 0.00 0.00 0.00 68 1009.8
20260905225235 35 158 1.6 3.2 0.00 0.00 0.00 66 1009.8
20260905224733 35 155 3.2 4.8 0.00 0.00 0.00 65 1009.5
20260905224230 35 141 6.4 9.7 0.00 0.00 0.00 62 1009.5
20260905223726 35 162 0.0 0.0 0.00 0.00 0.00 60 1009.4
20260905223222 35 162 0.0 0.0 0.00 0.00 0.00 55 1009.4
20260905222718 36 162 0.0 0.0 0.00 0.00 0.00 55 1009.4
20260905222216 36 162 0.0 0.0 0.00 0.00 0.00 52 1009.5
20260905221713 36 161 0.0 3.2 0.00 0.00 0.00 54 1009.2
20260905221209 36 162 0.0 0.0 0.00 0.00 0.00 56 1009.3
20260905220705 36 162 0.0 0.0 0.00 0.00 0.00 57 1009.4
20260905220201 36 171 3.2 4.8 0.00 0.00 0.00 58 1009.4
20260905215700 36 285 0.0 0.0 0.00 0.00 0.00 51 1009.7
20260905215156 36 174 3.2 3.2 0.00 0.00 0.00 52 1009.3
20260905214652 36 191 0.0 0.0 0.00 0.00 0.00 51 1009.5
20260905214147 36 196 0.0 1.6 0.00 0.00 0.00 51 1009.5
20260905213642 36 206 1.6 3.2 0.00 0.00 0.00 54 1009.7
20260905213137 36 174 1.6 3.2 0.00 0.00 0.00 54 1009.8
20260905212633 36 230 1.6 1.6 0.00 0.00 0.00 53 1009.4
20260905212132 36 317 0.0 1.6 0.00 0.00 0.00 56 1009.7
20260905211627 36 266 1.6 1.6 0.00 0.00 0.00 52 1009.7
20260905211122 36 299 0.0 0.0 0.00 0.00 0.00 51 1009.8
20260905210619 36 160 3.2 3.2 0.00 0.00 0.00 56 1009.7
20260905210113 36 178 3.2 3.2 0.00 0.00 0.00 55 1009.7
20260905205613 36 284 0.0 1.6 0.00 0.00 0.00 54 1009.8
20260905205112 36 310 0.0 1.6 0.00 0.00 0.00 52 1010.0
20260905204612 36 294 0.0 0.0 0.00 0.00 0.00 52 1009.9
20260905204108 36 304 0.0 1.6 0.00 0.00 0.00 54 1009.9
20260905203608 36 198 0.0 3.2 0.00 0.00 0.00 53 1010.0
20260905203103 36 160 3.2 3.2 0.00 0.00 0.00 57 1010.1
20260905202558 36 189 3.2 6.4 0.00 0.00 0.00 53 1010.2
20260905202054 36 267 1.6 1.6 0.00 0.00 0.00 55 1010.0
20260905201549 36 169 4.8 4.8 0.00 0.00 0.00 54 1010.0
20260905201049 36 182 1.6 6.4 0.00 0.00 0.00 54 1010.1
20260905200544 36 191 6.4 9.7 0.00 0.00 0.00 53 1010.2
20260905200044 36 153 1.6 4.8 0.00 0.00 0.00 56 1010.2
20260905195538 36 176 1.6 6.4 0.00 0.00 0.00 52 1010.3
20260905195033 36 192 1.6 4.8 0.00 0.00 0.00 52 1010.3
20260905194533 36 304 0.0 3.2 0.00 0.00 0.00 55 1010.5
20260905194032 36 162 0.0 6.4 0.00 0.00 0.00 55 1010.7
20260905193527 36 205 3.2 3.2 0.00 0.00 0.00 55 1010.8
20260905193023 36 178 1.6 4.8 0.00 0.00 0.00 55 1010.7
20260905192518 36 167 3.2 4.8 0.00 0.00 0.00 58 1010.7
20260905192015 36 183 1.6 6.4 0.00 0.00 0.00 56 1010.8
20260905191513 36 155 3.2 3.2 0.00 0.00 0.00 57 1011.0
20260905191012 36 162 1.6 3.2 0.00 0.00 0.00 55 1011.0
20260905190510 35 242 1.6 4.8 0.00 0.00 0.00 56 1011.2
20260905190004 35 184 1.6 4.8 0.00 0.00 0.00 58 1011.1
20260905185459 36 168 3.2 4.8 0.00 0.00 0.00 59 1011.3
20260905184957 35 209 1.6 3.2 0.00 0.00 0.00 57 1011.4
20260905184453 35 193 3.2 4.8 0.00 0.00 0.00 57 1011.5
20260905183951 35 183 3.2 3.2 0.00 0.00 0.00 57 1011.6
20260905183450 35 167 4.8 4.8 0.00 0.00 0.00 57 1011.7
20260905182945 35 176 4.8 4.8 0.00 0.00 0.00 58 1011.6
20260905182445 35 167 6.4 6.4 0.00 0.00 0.00 59 1011.8
20260905181941 35 161 4.8 9.7 0.00 0.00 0.00 60 1011.8
20260905181441 35 180 3.2 4.8 0.00 0.00 0.00 63 1012.0
20260905180940 35 198 1.6 3.2 0.00 0.00 0.00 59 1012.0
20260905180435 35 189 1.6 3.2 0.00 0.00 0.00 62 1012.1
20260905175930 35 176 3.2 9.7 0.00 0.00 0.00 60 1012.3
20260905175424 35 300 0.0 3.2 0.00 0.00 0.00 59 1012.3
20260905174919 35 172 4.8 6.4 0.00 0.00 0.00 60 1012.5
20260905174415 35 171 3.2 4.8 0.00 0.00 0.00 64 1012.5
20260905173910 35 174 1.6 6.4 0.00 0.00 0.00 64 1012.7
20260905173407 35 236 0.0 4.8 0.00 0.00 0.00 63 1012.7
20260905172906 35 169 3.2 6.4 0.00 0.00 0.00 67 1012.6
20260905172404 35 168 3.2 4.8 0.00 0.00 0.00 68 1012.8
20260905171900 34 163 4.8 4.8 0.00 0.00 0.00 67 1013.0
20260905171357 34 161 3.2 4.8 0.00 0.00 0.00 69 1013.0
20260905170853 34 166 3.2 6.4 0.00 0.00 0.00 66 1013.2
20260905170349 34 201 1.6 6.4 0.00 0.00 0.00 66 1012.8
20260905165848 34 270 1.6 3.2 0.00 0.00 0.00 68 1012.9
20260905165344 34 189 1.6 4.8 0.00 0.00 0.00 65 1013.2
20260905164843 34 164 4.8 4.8 0.00 0.00 0.00 66 1013.2
20260905164339 34 150 3.2 9.7 0.00 0.00 0.00 70 1013.5
20260905163835 34 186 3.2 6.4 0.00 0.00 0.00 68 1013.5
20260905163331 34 162 6.4 6.4 0.00 0.00 0.00 69 1013.6
20260905162827 35 181 1.6 3.2 0.00 0.00 0.00 67 1013.3
20260905162326 34 185 3.2 3.2 0.00 0.00 0.00 65 1013.4
20260905161821 35 183 1.6 3.2 0.00 0.00 0.00 67 1013.6
20260905161320 34 341 0.0 1.6 0.00 0.00 0.00 66 1013.5
20260905160818 34 50 1.6 1.6 0.00 0.00 0.00 70 1013.5
20260905160313 33 267 1.6 3.2 0.00 0.00 0.00 71 1013.1
20260905155808 33 174 3.2 4.8 0.00 0.00 0.00 73 1013.4
20260905155307 33 167 0.0 3.2 0.00 0.00 0.00 73 1013.3
20260905154807 33 235 1.6 3.2 0.00 0.00 0.00 75 1013.4
20260905154302 33 161 1.6 3.2 0.00 0.00 0.00 75 1013.5
20260905153758 32 158 0.0 4.8 0.00 0.00 0.00 75 1013.5
20260905153254 32 163 0.0 4.8 0.00 0.00 0.00 77 1013.6
20260905152749 31 176 1.6 3.2 0.00 0.00 0.00 81 1013.4
20260905152248 31 184 1.6 4.8 0.00 0.00 0.00 80 1013.3
20260905151748 31 158 3.2 4.8 0.00 0.00 0.00 80 1013.5
20260905151244 31 166 4.8 4.8 0.00 0.00 0.00 80 1013.8
20260905150743 31 165 1.6 4.8 0.00 0.00 0.00 82 1013.9
20260905150243 31 175 1.6 4.8 0.00 0.00 0.00 82 1013.6
20260905145741 30 158 4.8 4.8 0.00 0.00 0.00 84 1013.8
20260905145236 31 166 3.2 4.8 0.00 0.00 0.00 83 1013.9
20260905144734 30 172 1.6 3.2 0.00 0.00 0.00 83 1013.7
20260905144230 30 167 3.2 3.2 0.00 0.00 0.00 84 1013.9
20260905143729 30 164 3.2 4.8 0.00 0.00 0.00 86 1013.8
20260905143229 30 152 4.8 4.8 0.00 0.00 0.00 86 1013.8
20260905142727 30 173 1.6 4.8 0.00 0.00 0.00 86 1013.7
20260905142222 29 162 3.2 4.8 0.00 0.00 0.00 88 1014.0
20260905141718 28 163 3.2 3.2 0.00 0.00 0.00 88 1013.9
20260905141214 28 162 1.6 3.2 0.00 0.00 0.00 88 1014.0
20260905140709 28 160 1.6 3.2 0.00 0.00 0.00 90 1014.0
20260905140209 28 158 1.6 1.6 0.00 0.00 0.00 90 1014.1
20260905135703 28 157 1.6 4.8 0.00 0.00 0.00 91 1014.0
20260905135200 28 150 1.6 3.2 0.00 0.00 0.00 90 1014.2
20260905134658 28 95 3.2 3.2 0.00 0.00 0.00 92 1014.1
20260905134158 28 80 1.6 3.2 0.00 0.00 0.00 91 1014.2
20260905133653 27 338 3.2 3.2 0.00 0.00 0.00 93 1014.1
20260905133154 27 338 0.0 0.0 0.00 0.00 0.00 92 1014.1
20260905132653 27 338 0.0 0.0 0.00 0.00 0.00 92 1014.2